Location: Bluff Heights
(33.7692°N, 118.1592°W)
Time: 04:27:33
(UTC+00:00)

Vanguard 1 Rocket - Pass Details

Date: 27 September 2021
Orbit: 650 x 4225 km, 34.3° (Epoch: 24 October)

Event Time Altitude Azimuth Distance (km) Brightness Sun altitude
Rises 03:41:45 0° 243° (WSW) 2,973 10.7 -25.2°
Reaches altitude 10° 03:43:58 10° 239° (WSW) 2,040 9.7 -25.6°
Enters shadow 03:47:18 48° 207° (SSW) 898 7.3 -26.3°
